Theta_e
292 294 293 292 292 291 291 291 291 291 291 290 290 291 291 291 292 292 292 292 293 293
290 290 290 289 289 290 289 289 289 289 289 289 289 289 290 290 290 290 291 291 291 291
289 289 289 289 288 288 288 288 288 288 288 288 288 288 288 288 289 288 289 289 289 290
288 288 288 288 288 288 288 287 287 287 287 287 286 287 286 286 286 286 287 287 287 287
287 287 287 287 287 288 287 288 287 287 286 286 286 286 285 285 285 284 284 285 285 285
286 286 286 287 287 287 287 287 287 286 286 286 286 285 285 285 284 284 284 284 284 284
285 286 286 286 286 286 286 285 285 285 285 285 285 285 285 284 284 284 284 284 284 284
285 286 285 284 285 285 285 285 285 284 284 284 284 284 284 284 284 284 284 284 284 284
284 284 283 283 283 284 283 283 283 283 283 283 282 283 284 284 284 284 284 283 283 283
280 280 280 280 280 281 281 282 282 282 282 282 282 283 283 283 284 284 284 283 283 283
279 278 279 279 279 280 281 281 281 281 281 281 281 282 283 283 283 283 283 283 282 282
279 278 278 278 278 280 281 281 281 281 280 280 280 281 282 282 282 282 282 282 282 281
280 278 278 279 279 281 281 280 281 280 280 279 279 280 281 281 281 280 280 281 281 280
280 279 279 279 280 280 279 279 278 278 279 279 278 278 280 281 280 280 279 279 279 281
Wind_Speed
4 3 3 3 3 2 3 3 2 3 3 4 4 4 4 4 4 5 5 8 8 7
5 5 4 5 4 3 3 3 4 4 4 4 4 5 5 4 5 5 5 7 7 7
6 6 5 5 5 5 4 5 5 4 4 4 4 4 5 5 5 6 5 5 8 8
7 7 6 6 6 6 5 5 5 5 5 5 5 5 5 6 7 7 8 8 8 10
8 8 8 8 7 6 6 6 6 6 6 6 6 6 6 7 7 8 8 9 9 10
10 9 9 8 7 7 7 7 6 7 7 7 7 7 7 8 8 8 9 9 10 11
11 10 9 8 8 8 7 7 7 7 7 8 8 9 9 9 10 9 9 10 11 11
10 10 9 9 9 8 7 7 7 8 8 9 8 8 9 9 10 11 12 11 12 12
8 7 8 9 8 8 8 8 8 9 9 9 7 13 15 13 11 12 11 11 13 13
8 8 8 7 8 8 10 8 8 9 9 9 10 15 16 16 10 10 11 12 11 11
8 8 7 7 9 9 8 8 8 8 9 9 9 16 17 17 10 10 12 12 12 12
9 9 8 8 9 8 7 8 8 7 9 9 10 17 17 15 10 10 12 10 11 12
10 10 9 9 7 7 8 8 7 8 9 11 11 17 18 15 8 11 10 10 11 17
10 9 8 7 7 6 7 8 8 9 8 10 11 12 18 18 10 9 9 9 9 9
Wind_Direction
206 211 203 207 212 226 236 235 252 269 277 281 288 291 291 286 281 277 270 271 264 264
223 216 212 206 216 227 237 250 259 276 284 291 296 298 295 282 283 279 279 275 272 266
225 221 220 220 223 221 224 226 244 258 269 281 285 288 289 286 283 279 277 269 273 271
228 225 224 229 227 227 230 233 241 249 260 269 277 278 279 284 289 283 286 281 274 275
235 230 232 232 232 231 240 239 248 255 265 270 273 280 279 282 283 282 281 284 282 277
236 234 237 238 235 233 242 248 245 249 258 265 268 272 270 269 276 277 278 279 279 281
234 235 238 239 238 240 242 253 255 256 266 272 277 276 279 279 282 281 280 279 278 279
234 235 234 235 236 241 246 253 261 268 267 269 269 272 276 280 278 277 279 278 277 275
231 225 227 238 240 244 251 253 254 255 261 267 267 269 271 274 278 277 273 272 274 278
237 237 238 239 243 242 249 255 248 256 256 259 263 272 279 280 275 270 268 266 269 276
241 242 243 238 237 243 245 248 253 258 260 264 267 275 282 284 277 269 264 265 268 271
227 235 233 237 239 242 247 248 249 252 262 259 263 272 280 285 279 269 266 265 266 267
227 221 225 231 237 247 244 256 260 262 254 253 261 271 280 281 275 272 274 273 267 267
235 224 218 230 231 238 244 253 256 264 265 261 256 265 273 275 268 268 275 273 272 268